TimePST,TemperatureF,Dew PointF,Humidity,Sea Level PressureIn,VisibilityMPH,Wind Direction,Wind SpeedMPH,Gust SpeedMPH,PrecipitationIn,Events,Conditions,WindDirDegrees,DateUTC
12:15 AM,32.0,24.8,75,30.03,10.0,WNW,13.8,-,N/A,,Overcast,300,2013-01-28 08:15:00
12:35 AM,32.0,28.4,87,30.03,10.0,WNW,16.1,23.0,N/A,,Overcast,300,2013-01-28 08:35:00
12:55 AM,32.0,28.4,87,30.03,10.0,WNW,17.3,24.2,N/A,,Overcast,300,2013-01-28 08:55:00
1:15 AM,32.0,24.8,75,30.03,10.0,WNW,13.8,-,N/A,,Mostly Cloudy,290,2013-01-28 09:15:00
1:35 AM,32.0,23.0,69,30.03,10.0,WNW,11.5,-,N/A,,Mostly Cloudy,290,2013-01-28 09:35:00
1:55 AM,32.0,24.8,75,30.03,10.0,WNW,9.2,-,N/A,,Overcast,300,2013-01-28 09:55:00
2:15 AM,32.0,26.6,80,30.03,10.0,WNW,8.1,-,N/A,,Overcast,300,2013-01-28 10:15:00
2:35 AM,32.0,24.8,75,30.03,10.0,WNW,13.8,-,N/A,,Overcast,300,2013-01-28 10:35:00
2:55 AM,32.0,24.8,75,30.04,10.0,WNW,13.8,-,N/A,,Mostly Cloudy,290,2013-01-28 10:55:00
3:15 AM,32.0,24.8,75,30.03,10.0,WNW,12.7,-,N/A,,Overcast,290,2013-01-28 11:15:00
3:35 AM,32.0,26.6,80,30.02,10.0,NW,10.4,-,N/A,,Overcast,310,2013-01-28 11:35:00
3:55 AM,32.0,26.6,80,30.02,10.0,WNW,8.1,-,N/A,,Overcast,290,2013-01-28 11:55:00
4:15 AM,32.0,28.4,87,30.02,10.0,WNW,9.2,17.3,N/A,,Overcast,300,2013-01-28 12:15:00
4:35 AM,32.0,28.4,87,30.01,10.0,WNW,12.7,16.1,N/A,,Overcast,300,2013-01-28 12:35:00
4:55 AM,30.2,28.4,93,30.01,10.0,WNW,10.4,-,N/A,,Overcast,290,2013-01-28 12:55:00
5:35 AM,32.0,26.6,80,30.01,10.0,WNW,11.5,18.4,N/A,,Overcast,300,2013-01-28 13:35:00
5:55 AM,32.0,26.6,80,30.02,10.0,NW,10.4,-,N/A,,Overcast,310,2013-01-28 13:55:00
6:15 AM,30.2,28.4,93,30.03,10.0,WNW,16.1,-,N/A,,Overcast,300,2013-01-28 14:15:00
6:35 AM,30.2,28.4,93,30.03,7.0,WNW,19.6,27.6,N/A,,Overcast,300,2013-01-28 14:35:00
6:55 AM,30.2,28.4,93,30.03,10.0,NW,13.8,24.2,N/A,,Overcast,310,2013-01-28 14:55:00
7:35 AM,30.2,28.4,93,30.04,10.0,NW,17.3,25.3,N/A,,Overcast,310,2013-01-28 15:35:00
7:55 AM,30.2,28.4,93,30.05,10.0,NW,12.7,-,N/A,,Overcast,310,2013-01-28 15:55:00
8:15 AM,30.2,28.4,93,30.05,10.0,NW,16.1,20.7,N/A,,Overcast,310,2013-01-28 16:15:00
8:35 AM,30.2,26.6,86,30.06,10.0,NW,17.3,25.3,N/A,Rain,Freezing Rain,310,2013-01-28 16:35:00
8:55 AM,30.2,26.6,86,30.07,10.0,NW,15.0,20.7,N/A,,Overcast,310,2013-01-28 16:55:00
9:15 AM,30.2,26.6,86,30.07,10.0,WNW,18.4,-,N/A,,Overcast,300,2013-01-28 17:15:00
9:35 AM,30.2,26.6,86,30.08,10.0,NW,17.3,25.3,N/A,,Overcast,310,2013-01-28 17:35:00
9:55 AM,30.2,26.6,86,30.09,10.0,NW,16.1,20.7,N/A,,Overcast,310,2013-01-28 17:55:00
10:15 AM,32.0,28.4,87,30.09,10.0,NW,11.5,17.3,N/A,,Overcast,310,2013-01-28 18:15:00
10:35 AM,30.2,28.4,93,30.10,10.0,WNW,16.1,-,N/A,,Overcast,300,2013-01-28 18:35:00
10:55 AM,32.0,28.4,87,30.10,10.0,WNW,15.0,21.9,N/A,,Overcast,300,2013-01-28 18:55:00
11:15 AM,32.0,28.4,87,30.11,10.0,WNW,13.8,19.6,N/A,,Overcast,300,2013-01-28 19:15:00
11:35 AM,32.0,26.6,80,30.11,10.0,WNW,13.8,18.4,N/A,,Mostly Cloudy,290,2013-01-28 19:35:00
11:55 AM,32.0,26.6,80,30.11,10.0,NW,18.4,21.9,N/A,,Overcast,320,2013-01-28 19:55:00
12:15 PM,32.0,26.6,80,30.11,10.0,NW,15.0,-,N/A,,Overcast,310,2013-01-28 20:15:00
12:35 PM,32.0,26.6,80,30.11,10.0,NW,13.8,-,N/A,,Overcast,310,2013-01-28 20:35:00
12:55 PM,32.0,26.6,80,30.10,10.0,WNW,16.1,21.9,N/A,,Overcast,300,2013-01-28 20:55:00
1:15 PM,32.0,26.6,80,30.10,10.0,NW,16.1,21.9,N/A,,Overcast,310,2013-01-28 21:15:00
1:35 PM,32.0,26.6,80,30.10,10.0,WNW,12.7,18.4,N/A,,Overcast,300,2013-01-28 21:35:00
1:55 PM,32.0,26.6,80,30.10,10.0,NW,11.5,-,N/A,,Overcast,310,2013-01-28 21:55:00
2:15 PM,32.0,26.6,80,30.10,10.0,NW,10.4,17.3,N/A,,Overcast,320,2013-01-28 22:15:00
2:35 PM,32.0,26.6,80,30.10,10.0,NW,13.8,-,N/A,,Overcast,310,2013-01-28 22:35:00
2:55 PM,32.0,26.6,80,30.11,10.0,NW,13.8,18.4,N/A,,Overcast,310,2013-01-28 22:55:00
3:15 PM,33.8,24.8,70,30.11,10.0,WNW,15.0,-,N/A,,Overcast,300,2013-01-28 23:15:00
3:35 PM,33.8,24.8,70,30.11,10.0,NW,12.7,18.4,N/A,,Overcast,310,2013-01-28 23:35:00
3:55 PM,32.0,24.8,75,30.11,10.0,NW,11.5,18.4,N/A,,Overcast,310,2013-01-28 23:55:00
4:15 PM,32.0,26.6,80,30.11,10.0,WNW,11.5,-,N/A,,Overcast,300,2013-01-29 00:15:00
4:35 PM,33.8,24.8,70,30.12,10.0,WNW,13.8,-,N/A,,Overcast,300,2013-01-29 00:35:00
4:55 PM,32.0,24.8,75,30.13,10.0,WNW,12.7,-,N/A,,Overcast,290,2013-01-29 00:55:00
5:15 PM,32.0,24.8,75,30.13,10.0,WNW,9.2,-,N/A,,Overcast,300,2013-01-29 01:15:00
5:35 PM,32.0,24.8,75,30.13,10.0,WNW,9.2,-,N/A,,Overcast,290,2013-01-29 01:35:00
5:55 PM,32.0,24.8,75,30.14,10.0,WNW,11.5,-,N/A,,Overcast,290,2013-01-29 01:55:00
6:15 PM,32.0,24.8,75,30.15,10.0,West,6.9,-,N/A,,Overcast,280,2013-01-29 02:15:00
6:35 PM,32.0,24.8,75,30.15,10.0,WNW,6.9,-,N/A,,Overcast,290,2013-01-29 02:35:00
6:55 PM,32.0,26.6,80,30.15,10.0,West,8.1,-,N/A,,Overcast,270,2013-01-29 02:55:00
7:15 PM,32.0,26.6,80,30.16,10.0,WNW,9.2,-,N/A,,Mostly Cloudy,290,2013-01-29 03:15:00
7:35 PM,32.0,26.6,80,30.16,10.0,WNW,6.9,-,N/A,,Mostly Cloudy,290,2013-01-29 03:35:00
7:55 PM,32.0,26.6,80,30.16,10.0,WNW,9.2,-,N/A,,Mostly Cloudy,300,2013-01-29 03:55:00
8:15 PM,30.2,26.6,86,30.15,10.0,WNW,13.8,-,N/A,,Mostly Cloudy,300,2013-01-29 04:15:00
8:35 PM,30.2,24.8,80,30.16,10.0,WNW,10.4,-,N/A,,Scattered Clouds,290,2013-01-29 04:35:00
8:55 PM,32.0,24.8,75,30.16,10.0,WNW,13.8,17.3,N/A,,Scattered Clouds,290,2013-01-29 04:55:00
9:15 PM,30.2,24.8,80,30.16,10.0,WNW,10.4,-,N/A,,Partly Cloudy,290,2013-01-29 05:15:00
9:35 PM,30.2,24.8,80,30.16,10.0,West,12.7,-,N/A,,Clear,280,2013-01-29 05:35:00
9:55 PM,28.4,24.8,86,30.16,10.0,West,12.7,-,N/A,,Clear,280,2013-01-29 05:55:00
10:15 PM,28.4,24.8,86,30.15,10.0,WNW,10.4,-,N/A,,Clear,290,2013-01-29 06:15:00
10:35 PM,30.2,24.8,80,30.16,10.0,WNW,10.4,17.3,N/A,,Clear,290,2013-01-29 06:35:00
10:55 PM,30.2,24.8,80,30.16,10.0,WNW,12.7,-,N/A,,Partly Cloudy,290,2013-01-29 06:55:00
11:15 PM,32.0,24.8,75,30.16,10.0,WNW,17.3,23.0,N/A,,Clear,300,2013-01-29 07:15:00
11:35 PM,32.0,24.8,75,30.16,10.0,NW,13.8,21.9,N/A,,Clear,310,2013-01-29 07:35:00
11:55 PM,32.0,24.8,75,30.17,10.0,WNW,19.6,26.5,N/A,,Clear,300,2013-01-29 07:55:00